TimeEST,TemperatureF,Dew PointF,Humidity,Sea Level PressureIn,VisibilityMPH,Wind Direction,Wind SpeedMPH,Gust SpeedMPH,PrecipitationIn,Events,Conditions,WindDirDegrees,DateUTC
12:54 AM,60.1,53.1,78,29.91,10.0,SSE,11.5,24.2,N/A,,Overcast,150,2011-11-28 05:54:00
1:01 AM,60.8,53.6,77,29.95,10.0,SSE,15.0,25.3,N/A,,Overcast,160,2011-11-28 06:01:00
1:08 AM,60.8,53.6,77,29.95,10.0,SSE,13.8,24.2,N/A,,Overcast,150,2011-11-28 06:08:00
1:54 AM,59.0,54.0,83,29.89,9.0,SSE,17.3,24.2,0.00,Rain,Light Rain,150,2011-11-28 06:54:00
2:54 AM,57.9,54.0,87,29.89,10.0,SSE,12.7,24.2,0.02,Rain,Light Rain,150,2011-11-28 07:54:00
3:32 AM,57.2,55.4,94,29.93,10.0,SSE,17.3,29.9,0.01,Rain,Light Rain,150,2011-11-28 08:32:00
3:49 AM,59.0,55.4,88,29.93,10.0,SSE,15.0,27.6,0.01,Rain,Light Rain,150,2011-11-28 08:49:00
3:54 AM,57.9,55.0,90,29.88,10.0,SSE,13.8,24.2,0.02,Rain,Light Rain,150,2011-11-28 08:54:00
4:54 AM,57.9,55.0,90,29.88,9.0,SSE,13.8,20.7,0.06,Rain,Rain,150,2011-11-28 09:54:00
5:33 AM,57.2,55.4,94,29.91,10.0,SSE,10.4,-,0.11,Rain,Light Rain,150,2011-11-28 10:33:00
5:51 AM,57.2,55.4,94,29.91,8.0,SSE,12.7,-,0.12,Rain,Light Rain,150,2011-11-28 10:51:00
5:54 AM,57.0,55.0,93,29.88,8.0,SSE,10.4,-,0.13,Rain,Light Rain,150,2011-11-28 10:54:00
6:15 AM,57.2,55.4,94,29.91,6.0,SE,9.2,18.4,0.01,Rain,Light Rain,140,2011-11-28 11:15:00
6:54 AM,57.0,55.0,93,29.89,6.0,SSE,10.4,19.6,0.08,Rain,Rain,150,2011-11-28 11:54:00
7:07 AM,57.2,55.4,94,29.92,8.0,SE,10.4,19.6,0.03,Rain,Light Rain,140,2011-11-28 12:07:00
7:40 AM,57.2,55.4,94,29.92,9.0,SSE,11.5,18.4,0.08,Rain,Light Rain,150,2011-11-28 12:40:00
7:54 AM,57.0,55.0,93,29.87,8.0,SE,8.1,-,0.09,Rain,Light Rain,140,2011-11-28 12:54:00
8:13 AM,57.2,55.4,94,29.92,4.0,SSE,11.5,18.4,N/A,Rain,Rain,150,2011-11-28 13:13:00
8:29 AM,57.2,55.4,94,29.93,2.5,SSE,10.4,20.7,0.05,Rain,Rain,150,2011-11-28 13:29:00
8:33 AM,57.2,55.4,94,29.93,3.0,SSE,13.8,20.7,0.06,Rain,Light Rain,160,2011-11-28 13:33:00
8:54 AM,57.0,55.0,93,29.88,3.0,SE,8.1,-,0.11,Rain,Light Rain,140,2011-11-28 13:54:00
9:12 AM,57.2,55.4,94,29.91,4.0,SE,6.9,19.6,N/A,Rain,Rain,140,2011-11-28 14:12:00
9:50 AM,57.2,55.4,94,29.91,5.0,SE,9.2,16.1,0.09,Rain,Rain,130,2011-11-28 14:50:00
9:54 AM,57.9,55.9,93,29.87,5.0,SE,9.2,-,0.10,Rain,Rain,140,2011-11-28 14:54:00
10:14 AM,57.2,55.4,94,29.91,2.0,SSE,12.7,20.7,0.07,Rain,Heavy Rain,150,2011-11-28 15:14:00
10:20 AM,57.2,55.4,94,29.91,2.5,SSE,9.2,20.7,0.11,Rain,Rain,150,2011-11-28 15:20:00
10:27 AM,57.2,55.4,94,29.91,5.0,SE,8.1,16.1,0.13,Rain,Rain,130,2011-11-28 15:27:00
10:35 AM,57.2,55.4,94,29.90,5.0,SE,8.1,20.7,0.14,Rain,Rain,140,2011-11-28 15:35:00
10:54 AM,57.9,55.0,90,29.85,3.0,SE,8.1,19.6,0.23,Rain,Heavy Rain,130,2011-11-28 15:54:00
11:04 AM,57.2,55.4,94,29.89,4.0,SE,8.1,26.5,0.03,Rain,Rain,130,2011-11-28 16:04:00
11:11 AM,57.2,55.4,94,29.89,2.5,SE,10.4,21.9,0.05,Rain,Heavy Rain,130,2011-11-28 16:11:00
11:14 AM,57.2,55.4,94,29.88,3.0,ESE,10.4,21.9,N/A,Rain,Rain,120,2011-11-28 16:14:00
11:27 AM,59.0,55.4,88,29.88,4.0,SE,11.5,23.0,0.10,Rain,Rain,140,2011-11-28 16:27:00
11:52 AM,59.0,55.4,88,29.87,5.0,SE,13.8,21.9,0.16,Rain,Light Rain,130,2011-11-28 16:52:00
11:54 AM,59.0,55.4,88,29.87,4.0,SE,15.0,26.5,N/A,Rain,Rain,130,2011-11-28 16:54:00
12:01 PM,59.0,55.4,88,29.87,3.0,SE,13.8,26.5,0.02,Rain,Rain,130,2011-11-28 17:01:00
12:28 PM,57.2,55.4,94,29.86,2.5,SE,6.9,-,N/A,Rain,Heavy Rain,140,2011-11-28 17:28:00
12:39 PM,57.2,55.4,94,29.85,3.0,SSE,6.9,-,N/A,Rain,Rain,160,2011-11-28 17:39:00
12:54 PM,57.9,55.9,93,29.81,3.0,SE,8.1,-,0.18,Rain,Heavy Rain,130,2011-11-28 17:54:00
1:13 PM,57.2,57.2,100,29.85,2.0,South,11.5,-,0.09,Rain,Heavy Rain,180,2011-11-28 18:13:00
1:26 PM,57.2,57.2,100,29.85,3.0,SSE,9.2,17.3,0.17,Rain,Rain,160,2011-11-28 18:26:00
1:36 PM,59.0,55.4,88,29.84,3.0,SSE,10.4,-,0.19,Rain,Rain,150,2011-11-28 18:36:00
1:54 PM,59.0,55.9,90,29.78,4.0,SE,6.9,-,0.24,Rain,Rain,130,2011-11-28 18:54:00
2:01 PM,59.0,57.2,94,29.81,4.0,SE,8.1,-,0.02,Rain,Rain,130,2011-11-28 19:01:00
2:33 PM,59.0,57.2,94,29.80,5.0,SSE,10.4,19.6,0.10,Rain,Rain,160,2011-11-28 19:33:00
2:41 PM,59.0,57.2,94,29.79,3.0,SSE,6.9,-,0.12,Rain,Rain,160,2011-11-28 19:41:00
2:54 PM,59.0,57.0,93,29.75,9.0,SSE,10.4,20.7,0.14,Rain,Light Rain,150,2011-11-28 19:54:00
3:01 PM,60.8,57.2,88,29.79,6.0,SSE,12.7,20.7,0.01,Rain,Rain,150,2011-11-28 20:01:00
3:22 PM,60.8,57.2,88,29.76,6.0,SE,9.2,21.9,0.05,Rain,Light Rain,130,2011-11-28 20:22:00
3:54 PM,60.1,55.9,86,29.72,10.0,SE,16.1,32.2,0.06,Rain,Light Rain,130,2011-11-28 20:54:00
4:54 PM,59.0,55.9,90,29.69,6.0,ESE,11.5,18.4,0.14,Rain,Heavy Rain,120,2011-11-28 21:54:00
5:02 PM,59.0,55.4,88,29.72,5.0,SE,13.8,24.2,0.04,Rain,Rain,140,2011-11-28 22:02:00
5:18 PM,55.4,53.6,94,29.75,2.0,SSW,20.7,27.6,0.12,Rain,Heavy Rain,210,2011-11-28 22:18:00
5:54 PM,52.0,50.0,93,29.71,2.0,South,11.5,-,0.26,Rain,Rain,180,2011-11-28 22:54:00
6:01 PM,51.8,50.0,94,29.74,3.0,South,12.7,-,N/A,Rain,Light Rain,180,2011-11-28 23:01:00
6:17 PM,51.8,48.2,88,29.73,3.0,SSW,13.8,-,0.06,Rain,Light Rain,200,2011-11-28 23:17:00
6:27 PM,51.8,48.2,88,29.74,3.0,SSW,17.3,25.3,0.09,Rain,Rain,200,2011-11-28 23:27:00
6:54 PM,48.9,46.9,93,29.73,3.0,SSW,13.8,25.3,0.19,Rain,Heavy Rain,200,2011-11-28 23:54:00
7:12 PM,48.2,44.6,87,29.79,6.0,South,17.3,23.0,0.05,Rain,Heavy Rain,180,2011-11-29 00:12:00
7:54 PM,46.0,43.0,89,29.76,10.0,SSW,10.4,18.4,0.15,Rain,Light Rain,200,2011-11-29 00:54:00
8:42 PM,44.6,44.6,100,29.78,5.0,South,6.9,-,0.07,Rain,Rain,180,2011-11-29 01:42:00
8:54 PM,44.6,42.8,93,29.79,8.0,South,10.4,-,N/A,Rain,Light Rain,180,2011-11-29 01:54:00
9:03 PM,44.6,42.8,93,29.79,6.0,South,9.2,-,0.01,Rain,Rain,180,2011-11-29 02:03:00
9:54 PM,43.0,41.0,93,29.75,7.0,SSE,6.9,-,0.08,Rain,Rain,150,2011-11-29 02:54:00
10:54 PM,43.0,41.0,93,29.74,10.0,SSE,4.6,-,0.05,Rain,Light Rain,160,2011-11-29 03:54:00
11:22 PM,42.8,41.0,93,29.77,10.0,South,8.1,-,0.02,Rain,Light Rain,180,2011-11-29 04:22:00
11:52 PM,42.8,39.2,87,29.78,8.0,South,8.1,-,0.02,Rain,Light Rain,190,2011-11-29 04:52:00
11:54 PM,42.8,41.0,93,29.78,8.0,SSW,9.2,-,N/A,Rain,Light Rain,210,2011-11-29 04:54:00